metlocid,date_time,avg_wspd,std_wspd,min_wspd,max_wspd,n_wspd,n_comments
FRIM,12/7/93,4.203389818,0.463482369,3.5,5.3,59,0
FRIM,12/8/93,3.764583328,1.132141279,1.2,5.4,144,0
FRIM,12/9/93,2.968749986,1.28637119,0.5,5.2,144,1
FRIM,12/10/93,3.2597222,1.391498616,0.2,5.3,144,2
FRIM,12/11/93,3.540277783,1.070279972,0.3,5.5,144,4
FRIM,12/12/93,3.525694443,0.92771971,1.1,5.3,144,0
FRIM,12/13/93,3.318055561,0.744833287,1.9,4.8,144,1
FRIM,12/14/93,3.097916659,1.205608623,1.2,5.3,144,1
FRIM,12/15/93,3.731249991,1.343488242,1.4,6.6,144,0
FRIM,12/16/93,8.036111097,0.926427134,5.8,10.3,144,0
FRIM,12/17/93,4.709722226,2.332869988,0.6,9.7,144,0
FRIM,12/18/93,4.716666666,1.980852405,0.7,8.1,144,2
FRIM,12/19/93,3.321527763,1.206808376,0.5,6.3,144,0
FRIM,12/20/93,3.857638896,0.756933446,2.3,6.2,144,3
FRIM,12/21/93,3.17638888,0.658243693,1.1,4.8,144,0
FRIM,12/22/93,1.07083333,0.799026934,0.1,3.2,144,0
FRIM,12/23/93,2.42569445,1.260910237,0,4.5,144,0
FRIM,12/24/93,2.617361115,1.363168356,0.1,5.6,144,1
FRIM,12/25/93,2.951388887,1.230440596,0.8,5.2,144,0
FRIM,12/26/93,4.068055551,1.253618684,0.3,7.5,144,0
FRIM,12/27/93,3.424305543,1.379583723,0.1,5.6,144,0
FRIM,12/28/93,3.359027762,1.404658238,1.2,6.6,144,0
FRIM,12/29/93,2.525000004,1.084441789,0.2,4.4,144,0
FRIM,12/30/93,4.045833327,1.931261953,0.3,7.5,144,1
FRIM,12/31/93,2.974305569,1.650418334,0.1,5.6,144,1
FRIM,1/1/94,2.654861108,1.274594676,0.1,4.9,144,0
FRIM,1/2/94,3.479861097,1.585007551,0.2,6.9,144,1
FRIM,1/3/94,3.312500005,1.086398749,0.7,5.2,144,1
FRIM,1/4/94,3.152083339,1.380836308,0.6,5.6,144,0
FRIM,1/5/94,2.702777773,0.939866417,0.2,4.7,144,0
FRIM,1/6/94,3.15479453,1.312656471,1.5,5.2,73,0
FRIM,1/7/94,4.415517248,0.629898841,2.5,5.6,58,1
FRIM,1/8/94,3.827777774,1.019354262,0.8,5.7,144,1
FRIM,1/9/94,2.961111113,1.568800316,0.2,5.6,144,0
FRIM,1/10/94,3.102083325,1.353083438,0.1,5.4,144,0
FRIM,1/11/94,3.138194443,1.15407436,0.3,5.5,144,0
FRIM,1/12/94,3.535227281,1.66843859,0.2,5.9,88,0
FRIM,1/13/94,3.100000024,0.748331547,1.8,4.3,8,0
FRIM,1/14/94,3.137499988,1.327658998,1,5.7,8,0
FRIM,1/15/94,2.899999961,0.931971806,1.3,4,8,0
FRIM,1/16/94,3.212500051,1.119231309,1.6,4.8,8,0
FRIM,1/17/94,3.012499973,1.017612756,1.6,4.5,8,0
FRIM,1/18/94,3.62500006,1.592616959,1.3,5.3,8,0
FRIM,1/19/94,3.412499987,1.738174326,0.8,5.7,8,0
FRIM,1/20/94,2.674999975,1.490685326,0.7,4.6,8,0
FRIM,1/21/94,3.537499964,1.338375877,2,5.6,8,0
FRIM,1/22/94,2.862500042,1.579274292,1,4.8,8,0
FRIM,1/23/94,3.475000009,1.803765902,1.4,5.6,8,0
FRIM,1/24/94,2.387499973,1.667707946,0.6,5.7,8,0
FRIM,1/25/94,3.137500018,1.321187253,1,5.3,8,0
FRIM,1/26/94,2.987499971,1.457431677,0.4,5,8,0
FRIM,1/27/94,2.775000036,1.535996703,0.8,4.8,8,0
FRIM,1/28/94,2.474999964,1.456757634,0.7,4.1,8,0
FRIM,1/29/94,4.650000006,0.652467849,3.3,5.1,8,0
FRIM,1/30/94,3.224999994,0.87627461,1.5,4.3,8,0
FRIM,1/31/94,3.400000025,2.255786214,0.4,6.1,8,0
FRIM,2/1/94,2.362500012,0.902278889,0.9,3.7,8,0
FRIM,2/2/94,2.512500003,1.498987774,0.6,4.8,8,0
FRIM,2/3/94,3.5625,0.883074944,2.7,5.6,8,0
FRIM,2/4/94,2.81250003,1.401466085,0.6,4.3,8,0
FRIM,2/5/94,2.337499961,1.559246551,0.6,4.7,8,0
FRIM,2/6/94,3.300000027,1.46872153,1.5,5.1,8,0
FRIM,2/7/94,0.850000001,0.141421363,0.7,1.1,8,0
FRIM,2/8/94,1.325000018,1.255559101,0.7,4.4,8,0
FRIM,2/9/94,3.712500006,2.464280484,1,7.2,8,0
FRIM,2/10/94,2.150000021,1.845457762,0.6,5.5,8,0
FRIM,2/11/94,0.625000007,0.103509832,0.5,0.8,8,0
FRIM,2/12/94,0.950000018,0.374165757,0.5,1.7,8,0
FRIM,2/13/94,2.812500007,1.858138501,0.8,6.4,8,0
FRIM,2/14/94,1.825000003,1.487807613,0.8,4.9,8,0
FRIM,2/15/94,0.875000007,0.175254921,0.6,1.2,8,0
FRIM,2/16/94,3.149999991,2.889389541,0.9,8.6,8,0
FRIM,2/17/94,1.262500003,0.663190316,0.6,2.6,8,0
FRIM,2/18/94,0.887500003,0.099103114,0.8,1,8,0
FRIM,2/19/94,1.537500001,0.895923325,0.7,3.4,8,0
FRIM,2/20/94,0.824999996,0.148804756,0.6,1,8,0
FRIM,2/21/94,0.95000001,0.342261393,0.5,1.6,8,0
FRIM,2/22/94,1.637499988,1.276084966,0.6,4,8,0
FRIM,2/23/94,2.224999972,1.988358946,0.8,6,8,0
FRIM,2/24/94,0.887500003,0.331393166,0.5,1.6,8,0
FRIM,2/25/94,0.874999993,0.103509832,0.7,1,8,0
FRIM,2/26/94,0.887500018,0.241646148,0.6,1.2,8,0
FRIM,2/27/94,0.787500001,0.12464234,0.6,1,8,0
FRIM,2/28/94,0.525000002,0.166904584,0.4,0.9,8,0
FRIM,3/1/94,0.612500012,0.099103121,0.5,0.8,8,0
FRIM,3/2/94,0.8125,0.188509199,0.6,1.2,8,0
FRIM,3/3/94,0.875,0.128173993,0.7,1.1,8,0
FRIM,3/4/94,1.099999979,0.177281037,0.9,1.3,8,0
FRIM,3/5/94,1.037500009,0.074402399,1,1.2,8,0
FRIM,3/6/94,1.362499982,0.477904636,0.9,2.1,8,0
FRIM,3/7/94,1.337499999,0.93187599,0.7,3.5,8,0
FRIM,3/8/94,1.012499996,0.309088524,0.7,1.6,8,0
FRIM,3/9/94,1.0625,0.350255025,0.7,1.6,8,0
FRIM,3/10/94,4.499999955,3.46533845,1.1,10.4,8,0
FRIM,3/11/94,0.700000005,0.366450144,0.2,1.4,8,0
FRIM,3/12/94,1.537500009,0.692691451,1,3.2,8,0
FRIM,3/13/94,0.925000004,0.225198312,0.6,1.3,8,0
FRIM,3/14/94,1.287499994,0.859297874,0.6,2.8,8,0
FRIM,3/15/94,1.68750003,1.724145818,0.8,5.8,8,0
FRIM,3/16/94,2.362499952,2.735448426,0.8,7.7,8,0
FRIM,3/17/94,0.837500006,0.074402373,0.8,1,8,0
FRIM,3/18/94,1.725000016,1.097724946,0.8,3.2,8,0
FRIM,3/19/94,4.524999924,3.83359204,0.7,9.2,8,0
FRIM,3/20/94,0.774999999,0.14880475,0.6,1,8,0
FRIM,3/21/94,0.762500003,0.232609433,0.5,1.1,8,0
FRIM,3/22/94,0.675000001,0.198206234,0.4,1,8,0
FRIM,3/23/94,0.550000008,0.092582011,0.4,0.7,8,0
FRIM,3/24/94,0.912500009,0.290012306,0.6,1.5,8,0
FRIM,3/25/94,1.112500004,0.26423745,0.8,1.6,8,0
FRIM,3/26/94,2.200000033,2.590091148,1,8.6,8,0
FRIM,3/27/94,4.274999976,3.599503972,1.1,10.8,8,0
FRIM,3/28/94,6.737500012,2.737536763,2.1,11.3,8,0
FRIM,3/29/94,5.13750001,4.656159526,0.8,11.6,8,0
FRIM,3/30/94,0.75,0.141421336,0.6,0.9,8,0
FRIM,3/31/94,0.862499997,0.140788602,0.7,1.1,8,0
FRIM,4/1/94,1.837500051,1.230490668,1,4.8,8,0
FRIM,4/2/94,3.100000024,3.278937089,0.8,8.2,8,0
FRIM,4/3/94,0.95000001,0.1511858,0.8,1.2,8,0
FRIM,4/4/94,2.437499948,2.638688713,0.7,6.7,8,0
FRIM,4/5/94,4.337499976,4.182595673,0.6,10.9,8,0
FRIM,4/6/94,1.037500009,0.403334331,0.6,1.7,8,0
FRIM,4/7/94,4.349999949,3.258834082,1,7.9,8,0
FRIM,4/8/94,1.13750001,0.33354162,0.8,1.7,8,0
FRIM,4/9/94,0.9375,0.159798999,0.7,1.2,8,0
FRIM,4/10/94,1.687500007,1.144474297,0.8,3.6,8,0
FRIM,4/11/94,4.450000033,2.90073884,1,7.3,8,0
FRIM,4/12/94,0.737499997,0.213390988,0.5,1.1,8,0
FRIM,4/13/94,0.887500018,0.387067737,0.6,1.7,8,0
FRIM,4/14/94,1,0.555492045,0.6,2.3,8,0
FRIM,4/15/94,0.862500004,0.282526855,0.6,1.4,8,0
FRIM,4/16/94,0.962500013,0.592663512,0.6,2.4,8,0
FRIM,4/17/94,6.0625,3.461187812,1.1,10.4,8,0
FRIM,4/18/94,4.049999923,3.751190126,1,9.9,8,0
FRIM,4/19/94,1.650000021,0.85021008,1,3.4,8,0
FRIM,4/20/94,2.037500009,1.091443994,1,3.9,8,0
FRIM,4/21/94,0.962500013,0.192261003,0.7,1.2,8,0
FRIM,4/22/94,0.787500009,0.195940948,0.6,1.1,8,0
FRIM,4/23/94,1.000000007,0.151185814,0.8,1.2,8,0
FRIM,4/24/94,1.224999994,0.271240519,0.9,1.8,8,0
FRIM,4/25/94,1.050000004,0.325137334,0.5,1.5,8,0
FRIM,4/26/94,1.875000015,2.127876237,0.5,6.9,8,0
FRIM,4/27/94,1.537499994,1.022514415,0.5,3.7,8,0
FRIM,4/28/94,1.062499985,0.669621393,0.6,2.6,8,0
FRIM,4/29/94,2.012500003,1.088166877,0.6,3.9,8,0
FRIM,4/30/94,2.387500025,1.640067526,0.6,4.3,8,0
FRIM,5/1/94,0.774999999,0.128173985,0.6,1,8,0
FRIM,5/2/94,1.625000022,1.394632602,0.5,4.4,8,0
FRIM,5/3/94,1.23749999,0.287538819,0.8,1.7,8,0
FRIM,5/4/94,1.462500006,0.838259281,0.9,3.4,8,0
FRIM,5/5/94,1.312500007,0.559176693,0.8,2.5,8,0
FRIM,5/6/94,4.800000131,4.181934113,1,10.6,8,0
FRIM,5/7/94,1.087499999,0.195940942,0.8,1.4,8,0
FRIM,5/8/94,0.937499993,0.091612547,0.8,1.1,8,0
FRIM,5/9/94,1.26250001,0.868393461,0.8,3.4,8,0
FRIM,5/10/94,0.999999993,0.277746023,0.5,1.3,8,0
FRIM,5/11/94,0.862500004,0.184681208,0.7,1.2,8,0
FRIM,5/12/94,0.900000013,0.333809187,0.6,1.6,8,0
FRIM,5/13/94,0.737500004,0.130247014,0.5,0.9,8,0
FRIM,5/14/94,0.63750001,0.118773494,0.5,0.8,8,0
FRIM,5/15/94,0.850000001,0.256347964,0.6,1.3,8,0
FRIM,5/16/94,1.20000001,0.545108136,0.7,2.2,8,0
FRIM,5/17/94,0.912500009,0.235660182,0.5,1.2,8,0
FRIM,5/18/94,1.162500024,0.30676888,0.8,1.6,8,0
FRIM,5/19/94,0.924999997,0.254950968,0.5,1.4,8,0
FRIM,5/20/94,9.874999955,6.475613588,1.4,16.5,8,0
FRIM,5/21/94,8.800000072,2.377273282,4.3,11.9,8,0
FRIM,5/22/94,7.849999905,2.657066124,4.6,13.3,8,0
FRIM,5/23/94,10.11249986,7.426100197,1.4,19.6,8,0
FRIM,5/24/94,1.237499982,0.091612502,1.1,1.3,8,0
FRIM,5/25/94,1.375000022,0.420034019,0.8,2,8,0
FRIM,5/26/94,7.487499967,4.168739941,1.6,11.3,8,0
FRIM,5/27/94,2.962500021,2.468045828,1,7.9,8,0
FRIM,5/28/94,3.337499976,2.558424439,0.9,6.5,8,0
FRIM,5/29/94,1.100000001,0.39279219,0.6,1.9,8,0
FRIM,5/30/94,1.237499997,1.036391361,0.6,3.6,8,0
FRIM,5/31/94,1.350000009,0.545108133,0.7,2.4,8,0
FRIM,6/1/94,1.737499997,0.388908737,1.3,2.5,8,0
FRIM,6/2/94,1.087499999,0.522186321,0.6,2.3,8,0
FRIM,6/3/94,1.137499996,0.219983756,0.7,1.4,8,0
FRIM,6/4/94,1.662499994,0.698851113,1.1,3.2,8,0
FRIM,6/5/94,4.187500089,4.420871889,0.9,11.1,8,0
FRIM,6/6/94,9.925000057,5.172109279,1.6,13.6,8,0
FRIM,6/7/94,9.212500036,3.163830218,4.2,13.2,8,0
FRIM,6/8/94,11.25,1.393864203,9.2,13.5,8,0
FRIM,6/9/94,11.0625,2.120604784,7.2,13,8,0
FRIM,6/10/94,11.29999983,2.860569282,7.1,14.4,8,0
FRIM,6/11/94,5.324999958,3.830236811,1,11.2,8,0
FRIM,6/12/94,1.312499993,0.461170853,0.7,2.3,8,0
FRIM,6/13/94,0.95000001,0.220389282,0.6,1.2,8,0
FRIM,6/14/94,0.774999999,0.103509824,0.6,0.9,8,0
FRIM,6/15/94,0.875,0.166904606,0.7,1.2,8,0
FRIM,6/16/94,1.137500003,0.232609424,0.9,1.5,8,0
FRIM,6/17/94,1.325000003,0.148804743,1.1,1.5,8,0
FRIM,6/18/94,3.662500054,3.614232813,0.8,9.2,8,0
FRIM,6/19/94,0.737499997,0.140788587,0.5,0.9,8,0
FRIM,6/20/94,3.012500077,3.600570527,0.5,10.6,8,0
FRIM,6/21/94,2.012500018,1.672839807,1,5.8,8,0
FRIM,6/22/94,0.675000016,0.183225072,0.4,1,8,0
FRIM,6/23/94,0.51250001,0.155264754,0.3,0.8,8,0
FRIM,6/24/94,0.637499999,0.168501795,0.4,0.9,8,0
FRIM,6/25/94,2.274999999,1.542493359,0.7,5.5,8,0
FRIM,6/26/94,1.462500006,1.071630934,0.8,4,8,0
FRIM,6/27/94,1.112500012,0.397985998,0.6,2,8,0
FRIM,6/28/94,1.07500001,0.254950992,0.8,1.6,8,0
FRIM,6/29/94,0.862499997,0.362284405,0.5,1.4,8,0
FRIM,6/30/94,0.88750001,0.356320485,0.5,1.6,8,0
FRIM,7/1/94,2.63750001,2.882428286,0.8,8,8,0
FRIM,7/2/94,1.549999982,0.639195927,0.9,3,8,0
FRIM,7/3/94,1.287500001,0.603412878,0.8,2.6,8,0
FRIM,7/4/94,1.899999976,1.135152584,1.3,4.6,8,0
FRIM,7/5/94,1.312500015,0.229518128,1,1.6,8,0
FRIM,7/6/94,1.112500012,0.274837606,0.6,1.5,8,0
FRIM,7/7/94,1.087500006,0.285043852,0.6,1.6,8,0
FRIM,7/8/94,1.01250001,0.203100958,0.8,1.3,8,0
FRIM,7/9/94,0.700000003,0.130930726,0.5,0.9,8,0
FRIM,7/10/94,1.162499994,0.474905998,0.7,2,8,0
FRIM,7/11/94,0.674999997,0.15811387,0.5,0.9,8,0
FRIM,7/12/94,0.875000015,0.218762758,0.6,1.2,8,0
FRIM,7/13/94,1.187500015,0.155264741,1,1.5,8,0
FRIM,7/14/94,10.03749985,2.983735661,6.2,14,8,0
FRIM,7/15/94,8.925000131,1.356202713,6.9,10.8,8,0
FRIM,7/16/94,4.262499914,3.805986785,0.9,9.3,8,0
FRIM,7/17/94,1.325000003,0.34537764,0.9,1.9,8,0
FRIM,7/18/94,3.287500098,3.368101535,0.6,8.6,8,0
FRIM,7/19/94,0.962500006,0.306768881,0.6,1.6,8,0
FRIM,7/20/94,0.98749999,0.188509193,0.7,1.3,8,0
FRIM,7/21/94,0.925000004,0.166904603,0.7,1.1,8,0
FRIM,7/22/94,1.112499997,0.216712456,0.9,1.5,8,0
FRIM,7/23/94,0.975000001,0.406201911,0.6,1.9,8,0
FRIM,7/24/94,1.900000036,1.342705212,1,4.8,8,0
FRIM,7/25/94,0.850000009,0.092582004,0.8,1,8,0
FRIM,7/26/94,0.625000004,0.218762744,0.4,0.9,8,0
FRIM,7/27/94,1.25,0.272554066,0.9,1.6,8,0
FRIM,7/28/94,7.312499896,5.537002139,1.4,16,8,0
FRIM,7/29/94,9.774999976,2.93537541,5.7,14.6,8,0
FRIM,7/30/94,1.450000003,0.2976095,1.1,1.9,8,0
FRIM,7/31/94,1.287499994,0.083452262,1.2,1.4,8,0
FRIM,8/1/94,6.862500042,4.477224163,1.4,11.6,8,0
FRIM,8/2/94,9.212499976,2.324059027,6.3,12.6,8,0
FRIM,8/3/94,2.249999963,2.757845856,0.8,8.4,8,0
FRIM,8/4/94,0.75,0.160356741,0.5,1,8,0
FRIM,8/5/94,0.812500007,0.223207143,0.6,1.2,8,0
FRIM,8/6/94,0.88750001,0.216712452,0.6,1.2,8,0
FRIM,8/7/94,5.112499982,3.79113159,1,11.3,8,0
FRIM,8/8/94,3.587500006,2.941543613,0.9,7.4,8,0
FRIM,8/9/94,1.375000015,0.572588131,0.7,2.4,8,0
FRIM,8/10/94,1.087499999,0.258774593,0.7,1.5,8,0
FRIM,8/11/94,0.712500006,0.172688811,0.5,1,8,0
FRIM,8/12/94,0.712500006,0.135620261,0.5,0.9,8,0
FRIM,8/13/94,0.63750001,0.140788587,0.5,0.9,8,0
FRIM,8/14/94,0.662500016,0.091612531,0.6,0.8,8,0
FRIM,8/15/94,0.712500006,0.155264737,0.6,1,8,0
FRIM,8/16/94,0.899999991,0.199999988,0.7,1.3,8,0
FRIM,8/17/94,0.712500006,0.155264748,0.5,1,8,0
FRIM,8/18/94,0.662499998,0.159798973,0.4,0.9,8,0
FRIM,8/19/94,0.637500003,0.213390986,0.3,1,8,0
FRIM,8/20/94,0.737499997,0.176776694,0.5,1,8,0
FRIM,8/21/94,0.637500003,0.206587933,0.5,1.1,8,0
FRIM,8/22/94,0.912499987,0.112599173,0.7,1.1,8,0
FRIM,8/23/94,0.887499996,0.247487375,0.7,1.3,8,0
FRIM,8/24/94,0.737500004,0.238671898,0.6,1.3,8,0
FRIM,8/25/94,3.974999964,3.472236742,0.7,9.9,8,0
FRIM,8/26/94,1.312499985,0.229518107,1,1.8,8,0
FRIM,8/27/94,1.362500012,0.226384638,1.1,1.7,8,0
FRIM,8/28/94,4.387499958,2.400260366,1,7.2,8,0
FRIM,8/29/94,9.587500051,4.45659621,1.1,14.1,8,0
FRIM,8/30/94,5.912500054,3.785852462,1.4,11,8,1
FRIM,8/31/94,1.987500012,1.704982154,1,6.1,8,0
FRIM,9/1/94,3.874999985,2.997022302,1.1,8.7,8,0
FRIM,9/2/94,0.937500007,0.342000437,0.7,1.7,8,0
FRIM,9/3/94,1.712499984,1.495170791,0.5,4.5,8,0
FRIM,9/4/94,0.912500001,0.155264764,0.7,1.2,8,0
FRIM,9/5/94,0.787500005,0.25319389,0.4,1.1,8,0
FRIM,9/6/94,1.849999987,1.999285586,0.7,6.5,8,0
FRIM,9/7/94,6.137500048,6.698600711,1.1,17.7,8,0
FRIM,9/8/94,9.024999857,3.521261869,5.2,14.9,8,0
FRIM,9/9/94,1.287499979,0.360307377,0.9,2.1,8,0
FRIM,9/10/94,1.237500004,0.443806599,0.7,2.2,8,0
FRIM,9/11/94,0.887499996,0.235660156,0.6,1.3,8,0
FRIM,9/12/94,0.850000001,0.213809015,0.7,1.2,8,0
FRIM,9/13/94,0.974999994,0.046291016,0.9,1,8,0
FRIM,9/14/94,1.587500006,0.235660157,1.2,1.9,8,0
FRIM,9/15/94,1.924999997,0.205287244,1.6,2.2,8,0
FRIM,9/16/94,1.662499979,0.667484609,1,2.8,8,0
FRIM,9/17/94,0.924999997,0.328416096,0.5,1.3,8,0
FRIM,9/18/94,1.04999999,0.292770035,0.7,1.6,8,0
FRIM,9/19/94,0.799999997,0.20701968,0.5,1.2,8,0
FRIM,9/20/94,0.750000007,0.160356749,0.6,1.1,8,0
FRIM,9/21/94,0.712500013,0.21671246,0.5,1.2,8,0
FRIM,9/22/94,0.712500006,0.11259915,0.6,0.9,8,0
FRIM,9/23/94,0.875,0.158113894,0.7,1.1,8,0
FRIM,9/24/94,1.037500009,0.192260985,0.8,1.3,8,0
FRIM,9/25/94,1.024999991,0.249284677,0.6,1.4,8,0
FRIM,9/26/94,1.575000003,0.198206261,1.3,1.9,8,0
FRIM,9/27/94,1.449999988,0.160356783,1.3,1.7,8,0
FRIM,9/28/94,3.200000018,1.737814752,1.2,6.3,8,0
FRIM,9/29/94,1.912500024,1.334634841,0.9,4.3,8,0
FRIM,9/30/94,1.187500015,0.253193896,0.9,1.7,8,0
FRIM,10/1/94,4.349999979,2.521337465,1,7.5,8,0
FRIM,10/2/94,5.762499958,3.804860608,1.3,10.6,8,0
FRIM,10/3/94,1.000000015,0.192724846,0.7,1.2,8,0
FRIM,10/4/94,1.000000015,0.185164041,0.7,1.2,8,0
FRIM,10/5/94,3.312499963,2.930352142,0.8,8.9,8,0
FRIM,10/6/94,4.13750001,3.035945301,0.8,10.2,8,0
FRIM,10/7/94,1.925000012,1.445930274,1,5.4,8,0
FRIM,10/8/94,2.562500037,2.726556047,0.8,9.1,8,0
FRIM,10/9/94,6.125000089,2.641293036,1.3,8.6,8,0
FRIM,10/10/94,2.575000018,2.485242202,0.7,7.8,8,0
FRIM,10/11/94,1.637499966,1.054158424,0.7,3.5,8,0
FRIM,10/12/94,1.162500009,0.740535502,0.6,2.8,8,0
FRIM,10/13/94,1.637499996,1.099269227,0.6,3.5,8,0
FRIM,10/14/94,0.75,0.177281042,0.5,1,8,0
FRIM,10/15/94,1.1875,0.241646146,0.9,1.5,8,0
FRIM,10/16/94,1.374999985,0.328416119,0.9,1.8,8,0
FRIM,10/17/94,1.075000003,0.198206227,0.8,1.3,8,0
FRIM,10/18/94,1.212499999,0.294897077,0.7,1.6,8,0
FRIM,10/19/94,2.262499988,1.222336761,1.2,4.1,8,0
FRIM,10/20/94,6.087500036,4.474830442,0.6,11.4,8,0
FRIM,10/21/94,1.187499985,0.442194175,0.7,2.1,8,0
FRIM,10/22/94,0.912500009,0.304431559,0.6,1.5,8,0
FRIM,10/23/94,1.024999984,0.345377613,0.6,1.4,8,0
FRIM,10/24/94,0.800000004,0.160356736,0.6,1,8,0
FRIM,10/25/94,0.725000001,0.128173985,0.5,0.9,8,0
FRIM,10/26/94,1.074999988,0.662786298,0.5,2.6,8,0
FRIM,10/27/94,1.687500007,1.229909989,0.6,4,8,0
FRIM,10/28/94,0.887500003,0.576782966,0.4,2.2,8,0
FRIM,10/29/94,0.537499996,0.192260976,0.2,0.7,8,0
FRIM,10/30/94,3.587499946,2.518183851,1.1,7.6,8,0
FRIM,10/31/94,4.600000054,2.441311098,2.4,8.5,8,0
FRIM,11/1/94,1.737499997,1.041890419,0.9,4.1,8,0
FRIM,11/2/94,3.050000042,2.837000532,1,8.1,8,0
FRIM,11/3/94,5.012499988,3.176897535,1.1,11.4,8,0
FRIM,11/4/94,8.037499994,3.261435813,3.3,12.7,8,0
FRIM,11/5/94,7.099999979,3.716373025,1.4,11,8,0
FRIM,11/6/94,2.06249997,1.248928062,0.7,4.2,8,0
FRIM,11/7/94,2.274999999,1.681623367,0.8,5.5,8,0
FRIM,11/8/94,4.799999982,2.564036972,1,8,8,0
FRIM,11/9/94,2.137499973,1.58108231,0.9,4.7,8,0
FRIM,11/10/94,3.187499993,2.11959393,0.8,6.1,8,0
FRIM,11/11/94,2.487500064,1.734883757,0.6,4.8,8,0
FRIM,11/12/94,2.299999975,1.40915375,0.7,4.5,8,0
FRIM,11/13/94,2.887500018,1.208821801,1.3,4.4,8,0
FRIM,11/14/94,1.962499976,1.239743629,0.7,3.8,8,0
FRIM,11/15/94,2.337499984,1.245491859,0.7,4.1,8,0
FRIM,11/16/94,2.537499972,1.691100586,0.6,5.2,8,0
FRIM,11/17/94,2.637499996,1.447103031,0.6,4.4,8,0
FRIM,11/18/94,2.550000027,1.449137713,0.5,4.4,8,0
FRIM,11/19/94,3.050000042,0.97541204,1.8,4.9,8,0
FRIM,11/20/94,3.449999988,1.197616631,1.8,5.2,8,0
FRIM,11/21/94,3.574999988,1.614001237,1,5.5,8,0
FRIM,11/22/94,2.825000025,1.535996641,0.7,5.2,8,0
FRIM,11/23/94,3.000000015,1.44122965,0.9,5.1,8,0
FRIM,11/24/94,2.67499999,1.827371214,0.5,5.7,8,0
FRIM,11/25/94,3.475000031,2.087205974,0.7,6.3,8,0
FRIM,11/26/94,3.837499946,1.706238502,1.3,5.7,8,0
FRIM,11/27/94,3.125000082,1.454795081,0.8,4.4,8,0
FRLM,11/28/94,4.113793139,1.483173289,0.5,5.6,29,29
FRLM,11/29/94,2.763888889,2.769873416,0,6.4,72,72
FRLM,11/30/94,2.093055551,1.694591758,0,4.6,72,72
FRLM,12/1/94,3.505555553,1.451748719,0.2,5.6,72,72
FRLM,12/2/94,3.856944407,1.142745195,1.4,6.1,72,72
FRLM,12/3/94,3.533333319,1.433502545,0.4,5.5,72,72
FRLM,12/4/94,3.14027777,1.264427689,0.2,5.2,72,72
FRLM,12/5/94,2.870833329,1.947655674,0.3,6.5,72,72
FRLM,12/6/94,3.649999996,1.78286048,0.9,7.6,72,72
FRLM,12/7/94,4.197222212,1.86502067,0.8,8.1,72,72
FRLM,12/8/94,3.962500013,1.774184009,0.4,6.3,72,72
FRLM,12/9/94,3.540277785,1.425784658,0.1,5.5,72,72
FRLM,12/10/94,3.904166662,1.278030772,0.3,5.9,72,72
FRLM,12/11/94,3.456944405,1.598311264,0.2,6.1,72,72
FRLM,12/12/94,3.563888885,1.68082019,0.1,5.5,72,72
FRLM,12/13/94,3.666666664,2.173787516,0.1,7.7,72,72
FRLM,12/14/94,3.018055542,1.170208389,1.1,5.7,72,72
FRLM,12/15/94,3.140277759,1.810350483,0,5.7,72,72
FRLM,12/16/94,3.963888889,2.014126549,0,6.7,72,72
FRLM,12/17/94,3.215277783,0.842641679,1,5.5,72,72
FRLM,12/18/94,3.737499992,1.335373293,0.6,5.8,72,72
FRLM,12/19/94,4.230555559,1.248733318,0.2,6.3,72,72
FRLM,12/20/94,4.079166652,1.512384319,0.6,6.1,72,72
FRLM,12/21/94,4.029166664,1.141464035,1,6.5,72,72
FRLM,12/22/94,3.683333344,2.279238826,0,6.8,72,72
FRLM,12/23/94,3.927777772,1.142177586,1.4,5.9,72,72
FRLM,12/24/94,3.980555546,1.306068049,1.2,6.6,72,72
FRLM,12/25/94,3.915277781,2.003634719,0.6,8.5,72,72
FRLM,12/26/94,3.79444444,1.857750319,0,6.1,72,72
FRLM,12/27/94,3.701388876,0.948459548,1.2,5.3,72,72
FRLM,12/28/94,3.172222237,1.980697158,0.2,8.1,72,72
FRLM,12/29/94,4.912500012,1.704917332,1.9,9.3,72,72
FRLM,12/30/94,4.570833337,1.230188082,1.2,6.9,72,72
FRLM,12/31/94,3.787499991,1.175445663,0.3,6.1,72,72
FRLM,1/1/95,3.519444452,2.016176759,0,6.7,72,72
FRLM,1/2/95,4.283333315,1.520563259,1.7,8.5,72,72
FRLM,1/3/95,4.431944453,0.812893692,2.7,5.8,72,72
FRLM,1/4/95,3.202777761,1.329934028,0.5,5,72,72
FRLM,1/5/95,3.881944459,1.856949369,0,6.5,72,72
FRLM,1/6/95,4.134722211,1.599045465,1.1,7.6,72,72
FRLM,1/7/95,3.469444436,1.308868872,1.1,6.4,72,72
FRLM,1/8/95,3.493055577,2.248274877,0,7.3,72,72
FRLM,1/9/95,4.483333365,2.357009358,0.6,8.9,72,72
FRLM,1/10/95,4.376388894,1.491241376,1.6,8.9,72,72
FRLM,1/11/95,3.488985524,1.900756158,0.2,6.85,69,28
FRLM,1/12/95,3.991805563,1.337140478,1.59,7.88,72,0
FRLM,1/13/95,3.274999987,1.394529552,0.03,5.53,72,0
FRLM,1/14/95,2.874722224,1.421724769,0.1,5.62,72,0
FRLM,1/15/95,3.536249993,1.647024142,0.2,6.6,72,0
FRLM,1/16/95,3.028055547,1.375792345,0.07,5.23,72,0
FRLM,1/17/95,3.581666669,1.615655793,0.94,6.16,72,0
FRLM,1/18/95,3.567777788,1.583133135,0.01,5.84,72,0
FRLM,1/19/95,2.988055564,1.913741741,0,6.33,72,2
FRLM,1/20/95,3.278055569,1.6745297,0,5.41,72,1
FRLM,1/21/95,3.313055545,1.512997808,0,5.76,72,2
FRLM,1/22/95,3.721388884,1.645648381,0.08,6.33,72,0
FRLM,1/23/95,3.622777781,2.025157425,0.01,6.75,72,0
FRLM,1/24/95,3.462083332,1.686292661,0.05,6.03,72,0
FRLM,1/25/95,3.346944446,1.681125252,0,6.11,72,0
FRLM,1/26/95,2.940972225,1.587055167,0.01,6.2,72,0
FRLM,1/27/95,3.01722224,1.549951601,0,5.73,72,1
FRLM,1/28/95,3.769999996,2.291790629,0.21,8.1,72,0
FRLM,1/29/95,2.871388898,1.60703762,0,5.55,72,1
FRLM,1/30/95,3.049583353,1.916736125,0.01,5.39,72,0
FRLM,1/31/95,3.187083325,2.007675012,0.01,6.72,72,0
FRLM,2/1/95,11.33208335,3.089742627,3.74,16.22,72,0
FRLM,2/2/95,8.663888873,3.356054637,1.66,13.71,72,0
FRLM,2/3/95,4.208611107,1.288648501,0.79,7.11,72,0
FRLM,2/4/95,3.572499996,2.175172155,0.06,7.29,72,0
FRLM,2/5/95,7.294583343,5.449157048,0,18.89,72,1
FRLM,2/6/95,9.017777748,4.168617924,1.27,15.26,72,0
FRLM,2/7/95,4.446249993,1.919990783,0.07,7.43,72,0
FRLM,2/8/95,2.771666671,2.043434009,0.27,6.21,72,0
FRLM,2/9/95,3.932916657,2.082100398,0.26,7.63,72,0
FRLM,2/10/95,3.288888885,2.18888006,0,6.65,72,4
FRLM,2/11/95,3.012083319,1.624877825,0,5.62,72,0
FRLM,2/12/95,2.289722235,1.764315289,0.03,6.57,72,0
FRLM,2/13/95,6.678472261,2.307799186,2.06,9.87,72,0
FRLM,2/14/95,2.776666662,2.089428111,0,6.71,72,2
FRLM,2/15/95,2.922777781,1.556936524,0.01,6.19,72,0
FRLM,2/16/95,2.071111108,1.86811463,0,5.42,72,2
FRLM,2/17/95,2.564722215,1.204887895,0.02,4.56,72,0
FRLM,2/18/95,1.53486112,1.662613768,0,4.88,72,3
FRLM,2/19/95,0.476250001,0.744815772,0,3.25,72,5
FRLM,2/20/95,2.819444441,2.46369005,0,8.62,72,0
FRLM,2/21/95,6.077500004,2.406414401,0.62,10.11,72,0
FRLM,2/22/95,2.589027778,1.757319632,0.23,8.19,72,0
FRLM,2/23/95,2.683750002,2.095665163,0.02,6.83,72,0
FRLM,2/24/95,1.901805566,1.998950678,0,6.51,72,2
FRLM,2/25/95,0.494305558,0.382908905,0,1.54,72,8
FRLM,2/26/95,0.760277777,0.628026133,0,2.38,72,3
FRLM,2/27/95,3.707083314,1.4758511,0.05,6.28,72,0
FRLM,2/28/95,0.903611109,0.676622321,0.02,2.97,72,0
FRLM,3/1/95,3.069027765,2.819910158,0.1,9.36,72,0
FRLM,3/2/95,0.581388885,0.406681189,0.01,1.9,72,0
FRLM,3/3/95,3.858611104,2.633314355,0.18,7.99,72,0
FRLM,3/4/95,2.712083331,2.172600791,0,7.41,72,1
FRLM,3/5/95,1.936527789,2.985105856,0.01,11.85,72,0
FRLM,3/6/95,5.596805564,4.098302932,0.39,12.55,72,0
FRLM,3/7/95,10.40944446,3.278776326,3.12,14.22,72,0
FRLM,3/8/95,4.049027776,1.70324146,1.03,7.67,72,0
FRLM,3/9/95,1.430277777,1.291132245,0.01,4.67,72,0
FRLM,3/10/95,0.785555556,0.59697097,0,2.29,72,2
FRLM,3/11/95,0.87125,0.40952373,0.06,1.95,72,0
FRLM,3/12/95,0.705138886,0.417737009,0.06,2.15,72,0
FRLM,3/13/95,0.771666666,0.504888784,0.1,2.91,72,0
FRLM,3/14/95,0.613611113,0.53957549,0,3.09,72,2
FRLM,3/15/95,0.633472226,0.541451259,0,2.26,72,4
FRLM,3/16/95,5.511250016,3.399716227,0.13,9.99,72,0
FRLM,3/17/95,4.411249962,5.797071054,0.08,16.77,72,0
FRLM,3/18/95,4.165833321,5.573997129,0.02,18.82,72,0
FRLM,3/19/95,0.806388888,0.546430947,0,2.54,72,1
FRLM,3/20/95,0.430972223,0.411209689,0,2,72,2
FRLM,3/21/95,0.418749999,0.439705204,0,2.06,72,5
FRLM,3/22/95,0.667916669,0.5471744,0,2.51,72,3
FRLM,3/23/95,0.604583336,0.414246098,0,1.94,72,0
FRLM,3/24/95,0.362916664,0.362636806,0,1.79,72,8
FRLM,3/25/95,0.448611109,0.357421535,0,1.66,72,3
FRLM,3/26/95,0.966527776,0.637597071,0.01,3.02,72,0
FRLM,3/27/95,0.679583331,0.623295274,0.01,2.62,72,0
FRLM,3/28/95,0.673472223,0.432953046,0,1.94,72,3
FRLM,3/29/95,1.342777776,1.26887909,0,4.77,72,2
FRLM,3/30/95,0.727916665,0.656338403,0,3.57,72,1